Find Starlink 31885

NORAD ID: 59660 Int'l Des: 2024-084 Owner: SPXS Country: US Constellation: starlink operational
LEOCIRCULAR

Live-Position

3D-Globus wird geladen...

Über Starlink 31885

Beschreibung wird geladen...

Nächste Überflüge

Passes for default location (London). Set your location on the main map for personalized predictions.

Höhenverlauf

Loading altitude history...

Zweizeiliger Elementsatz

1 59660U 24084G 26128.85147306 .00002465 00000-0 99059-4 0 9990
2 59660 43.0035 58.6197 0000992 268.7250 91.3488 15.27576698113610
Epoch: 8. Mai 2026 • Age: 30 hours

Aktueller Status

Höhe 485.1 km
Geschwindigkeit 7.63 km/s
Subsatellitenpunkt 35.18°N, 86.97°W
Startdatum 6. Mai 2024
Alter 2 years
Typ internet

Technische Details

Klassifizierung Payload
Masse 730.00 kg
Trockenmasse 700.00 kg
Gesamtmasse 730.00 kg
Länge 0.30 m
Durchmesser 4.10 m
Spannweite 29.00 m
Form Box + pan
Hersteller SPXS
Bus-Typ Starlink V2M
Phasenstatus In Orbit
Besitzer/Staat SPXS/US

Most Searched